Showing default

QIANFAN-72, 62802

Orbit data source: Space-Track

QIANFAN-72, 62802 is a Chinese payload satellite in LEO that was launched on Thu, 23 Jan 2025 UTC via a CHANG ZHENG 6A launch vehicle from the Taiyaun Space Center, China (TSC). Payload-class satellites include a variety of spacecraft equipped with specific instruments for various scientific and technological missions. These include communications satellites like Starlink; space stations such as the ISS; scientific satellites like the Hubble; Earth observation satellites from companies like Planet Labs, Umbra, and HawkEye 360; GPS; miniature CubeSats for education and research; and military/defense satellites.

Loading next visibility...
Identifier
62802, 2025-016T
Orbit
LEO
Country
Flag of CNCN / PRC
Related business
Manufacturer
SECM
Mission
Operational Commercial Communications
Bus & Motor
QIANFAN, Unknown motor
Mass
267 kg wet, ~267 kg dry
Launch date (UTC)
2025-01-23 (8 months ago)
Launch vehicle
CHANG ZHENG 6A
Launch site
Taiyaun Space Center, China (TSC)
Object type
Payload
Rocket body
Debris
Shape & HBR
Box + 1 Pan, 5.0 m
Radar Cross Section
13.200 m², Large (>1 m²)

Expand to show TLE details & history
Last TLE update: 20 hours ago

TLE from 20 hours ago
0 QIANFAN-72
1 62802U 25016T   25259.60988188  .00000064  00000-0  82089-4 0  9994
2 62802  88.9752 112.1171 0017507 246.1320 113.7996 13.49485012 35462
Epoch: 2025-09-16T14:38Z
TLE epoch observation values (Epoch: 2025-09-16T14:38:13.794Z)
Latitude
-0.00001°
Longitude
-103.23809°
Altitude
1,082.39 km
Speed
7.308 km/s
True Right ascension
07h 28m 28s
True Declination
0° 00' 00"
Sunlit
Object was in daylight at epoch
Visualization orbit readout
Latitude
Unknown
Longitude
Unknown
Altitude
Unknown
Speed
Unknown
Apparent Right ascension
Unknown
Apparent Declination
Unknown
Sunlit
N/A
Visualization observer readout
Local Sidereal Time
03:51:39
Azimuth
Unknown
Elevation
Unknown
Doppler factor
Unknown
Orbital elements
Apogee altitude
1,084.249 km
Perigee altitude
1,058.166 km
Semi-major axis
7,449.344 km
Eccentricity
0.00175
Inclination
88.9752°
RAAN
112.1171°
Arg. of periapsis
246.132°
True anomaly
113.98299°
Mean anomaly
113.7996°
Eccentric anomaly
113.89131°
Mean motion
3.37572 °/min
Orbital period
106.64 mins
BSTAR
0.000082089
Loading maneuver chart data...
Computing Atmospheric mass density...
Loading historical data...
Loading historical data...
Loading historical data...
Loading historical data...
Loading historical data...
Loading historical data...
Loading historical data...

Documentation

Showing up to 5 results
|